Time,TemperatureF,DewpointF,PressureIn,WindDirection,WindDirectionDegrees,WindSpeedMPH,WindSpeedGustMPH,Humidity,HourlyPrecipIn,Conditions,Clouds,dailyrainin,SoftwareType,DateUTC
2013-03-06 00:02:00,-999.0,-99.9,29.67,SSW,199,21.0,26.0,-999,-99.99,,,-99.99,,2013-03-06 05:02:00,
2013-03-06 00:12:00,-999.0,-99.9,29.66,SSW,198,19.0,24.0,-999,-99.99,,,-99.99,,2013-03-06 05:12:00,
2013-03-06 00:23:00,59.0,-99.9,29.65,North,-999,-999.0,-999.0,-999,-99.99,,,-99.99,,2013-03-06 05:23:00,
2013-03-06 00:32:00,59.0,-99.9,29.64,North,-999,-999.0,-999.0,-999,-99.99,,,-99.99,,2013-03-06 05:32:00,
2013-03-06 00:42:00,60.0,-99.9,29.63,North,-999,-999.0,-999.0,-999,-99.99,,,-99.99,,2013-03-06 05:42:00,
2013-03-06 00:52:00,-999.0,-99.9,29.63,SSW,203,20.0,25.0,-999,-99.99,,,-99.99,,2013-03-06 05:52:00,
2013-03-06 01:02:00,59.0,-99.9,29.62,North,-999,-999.0,-999.0,-999,-99.99,,,-99.99,,2013-03-06 06:02:00,
2013-03-06 01:12:00,-999.0,-99.9,29.62,SSW,207,19.0,25.0,-999,-99.99,,,-99.99,,2013-03-06 06:12:00,
2013-03-06 01:22:00,-999.0,-99.9,29.62,SW,215,19.0,27.0,-999,-99.99,,,-99.99,,2013-03-06 06:22:00,
2013-03-06 01:32:00,-999.0,-99.9,29.61,SSW,213,17.0,23.0,-999,-99.99,,,-99.99,,2013-03-06 06:32:00,
2013-03-06 01:52:00,-999.0,-99.9,29.59,SSW,212,19.0,23.0,-999,-99.99,,,-99.99,,2013-03-06 06:52:00,
2013-03-06 02:02:00,59.0,-99.9,29.58,North,-999,-999.0,-999.0,-999,-99.99,,,-99.99,,2013-03-06 07:02:00,
2013-03-06 02:11:00,60.0,-99.9,29.57,North,-999,-999.0,-999.0,-999,-99.99,,,-99.99,,2013-03-06 07:11:00,
2013-03-06 02:22:00,60.0,-99.9,29.56,North,-999,-999.0,-999.0,-999,-99.99,,,-99.99,,2013-03-06 07:22:00,
2013-03-06 02:32:00,59.0,-99.9,29.55,North,-999,-999.0,-999.0,-999,-99.99,,,-99.99,,2013-03-06 07:32:00,
2013-03-06 02:42:00,-999.0,-99.9,29.54,SW,216,16.0,26.0,-999,-99.99,,,-99.99,,2013-03-06 07:42:00,
2013-03-06 02:52:00,-999.0,-99.9,29.53,SW,220,15.0,25.0,-999,-99.99,,,-99.99,,2013-03-06 07:52:00,
2013-03-06 03:01:00,-999.0,-99.9,29.53,SW,220,12.0,19.0,-999,-99.99,,,-99.99,,2013-03-06 08:01:00,
2013-03-06 03:22:00,58.0,-99.9,29.52,North,-999,-999.0,-999.0,-999,-99.99,,,-99.99,,2013-03-06 08:22:00,
2013-03-06 03:32:00,-999.0,-99.9,29.51,SW,234,9.0,22.0,-999,-99.99,,,-99.99,,2013-03-06 08:32:00,
2013-03-06 03:42:00,57.0,-99.9,29.50,North,-999,-999.0,-999.0,-999,-99.99,,,-99.99,,2013-03-06 08:42:00,
2013-03-06 03:52:00,57.0,-99.9,29.50,North,-999,-999.0,-999.0,-999,-99.99,,,-99.99,,2013-03-06 08:52:00,
2013-03-06 04:02:00,-999.0,-99.9,29.50,WSW,242,10.0,18.0,-999,-99.99,,,-99.99,,2013-03-06 09:02:00,
2013-03-06 04:12:00,56.0,-99.9,29.49,WSW,242,12.0,21.0,-999,-99.99,,,-99.99,,2013-03-06 09:12:00,
2013-03-06 04:22:00,56.0,-99.9,29.50,North,-999,-999.0,-999.0,-999,-99.99,,,-99.99,,2013-03-06 09:22:00,
2013-03-06 04:32:00,-999.0,-99.9,29.50,WSW,244,13.0,20.0,-999,-99.99,,,-99.99,,2013-03-06 09:32:00,
2013-03-06 04:42:00,-999.0,-99.9,29.50,WSW,250,14.0,21.0,-999,-99.99,,,-99.99,,2013-03-06 09:42:00,
2013-03-06 04:52:00,56.0,-99.9,29.50,North,-999,-999.0,-999.0,-999,-99.99,,,-99.99,,2013-03-06 09:52:00,
2013-03-06 05:02:00,56.0,-99.9,29.49,North,-999,-999.0,-999.0,-999,-99.99,,,-99.99,,2013-03-06 10:02:00,
2013-03-06 05:11:00,-999.0,-99.9,29.50,WSW,248,15.0,21.0,-999,-99.99,,,-99.99,,2013-03-06 10:11:00,
2013-03-06 05:22:00,-999.0,-99.9,29.50,WSW,252,11.0,25.0,-999,-99.99,,,-99.99,,2013-03-06 10:22:00,
2013-03-06 05:32:00,-999.0,-99.9,29.50,WSW,253,12.0,20.0,-999,-99.99,,,-99.99,,2013-03-06 10:32:00,
2013-03-06 05:42:00,-999.0,-99.9,29.50,WSW,251,10.0,24.0,-999,-99.99,,,-99.99,,2013-03-06 10:42:00,
2013-03-06 05:52:00,-999.0,-99.9,29.50,West,264,11.0,21.0,-999,-99.99,,,-99.99,,2013-03-06 10:52:00,
2013-03-06 06:02:00,-999.0,-99.9,29.51,West,263,8.0,23.0,-999,-99.99,,,-99.99,,2013-03-06 11:02:00,
2013-03-06 06:11:00,-999.0,-99.9,29.51,WSW,249,16.0,22.0,-999,-99.99,,,-99.99,,2013-03-06 11:11:00,
2013-03-06 06:23:00,-999.0,-99.9,29.51,West,264,13.0,27.0,-999,-99.99,,,-99.99,,2013-03-06 11:23:00,
2013-03-06 06:32:00,-999.0,-99.9,29.52,WSW,258,11.0,25.0,-999,-99.99,,,-99.99,,2013-03-06 11:32:00,
2013-03-06 06:53:00,-999.0,-99.9,29.52,West,260,9.0,21.0,-999,-99.99,,,-99.99,,2013-03-06 11:53:00,
2013-03-06 07:02:00,-999.0,-99.9,29.52,West,269,10.0,17.0,-999,-99.99,,,-99.99,,2013-03-06 12:02:00,
2013-03-06 07:12:00,51.0,-99.9,29.52,WSW,257,12.0,21.0,-999,-99.99,,,-99.99,,2013-03-06 12:12:00,
2013-03-06 07:22:00,-999.0,-99.9,29.52,West,261,15.0,23.0,-999,-99.99,,,-99.99,,2013-03-06 12:22:00,
2013-03-06 07:33:00,50.0,-99.9,29.52,North,-999,-999.0,-999.0,-999,-99.99,,,-99.99,,2013-03-06 12:33:00,
2013-03-06 07:43:00,-999.0,-99.9,29.53,WSW,256,14.0,25.0,-999,-99.99,,,-99.99,,2013-03-06 12:43:00,
2013-03-06 07:53:00,49.0,-99.9,29.54,North,-999,-999.0,-999.0,-999,-99.99,,,-99.99,,2013-03-06 12:53:00,
2013-03-06 08:02:00,-999.0,-99.9,29.55,WNW,295,19.0,30.0,-999,-99.99,,,-99.99,,2013-03-06 13:02:00,
2013-03-06 08:12:00,-999.0,-99.9,29.55,WNW,291,15.0,28.0,-999,-99.99,,,-99.99,,2013-03-06 13:12:00,
2013-03-06 08:22:00,46.0,-99.9,29.56,North,-999,-999.0,-999.0,-999,-99.99,,,-99.99,,2013-03-06 13:22:00,
2013-03-06 08:32:00,45.0,-99.9,29.57,North,-999,-999.0,-999.0,-999,-99.99,,,-99.99,,2013-03-06 13:32:00,
2013-03-06 08:42:00,44.0,-99.9,29.57,West,270,8.0,20.0,-999,-99.99,,,-99.99,,2013-03-06 13:42:00,
2013-03-06 08:52:00,44.0,-99.9,29.58,North,-999,-999.0,-999.0,-999,-99.99,,,-99.99,,2013-03-06 13:52:00,
2013-03-06 09:02:00,-999.0,-99.9,29.58,WNW,298,18.0,26.0,-999,-99.99,,,-99.99,,2013-03-06 14:02:00,
2013-03-06 09:12:00,-999.0,-99.9,29.59,WNW,294,18.0,29.0,-999,-99.99,,,-99.99,,2013-03-06 14:12:00,
2013-03-06 09:22:00,-999.0,-99.9,29.59,WNW,289,15.0,26.0,-999,-99.99,,,-99.99,,2013-03-06 14:22:00,
2013-03-06 09:32:00,44.0,-99.9,29.60,North,-999,-999.0,-999.0,-999,-99.99,,,-99.99,,2013-03-06 14:32:00,
2013-03-06 09:42:00,-999.0,-99.9,29.60,WNW,287,16.0,23.0,-999,-99.99,,,-99.99,,2013-03-06 14:42:00,
2013-03-06 09:53:00,-999.0,-99.9,29.61,WNW,293,15.0,32.0,-999,-99.99,,,-99.99,,2013-03-06 14:53:00,
2013-03-06 10:02:00,-999.0,-99.9,29.62,WNW,289,17.0,29.0,-999,-99.99,,,-99.99,,2013-03-06 15:02:00,
2013-03-06 10:22:00,42.0,-99.9,29.62,North,-999,-999.0,-999.0,-999,-99.99,,,-99.99,,2013-03-06 15:22:00,
2013-03-06 10:32:00,43.0,-99.9,29.61,North,-999,-999.0,-999.0,-999,-99.99,,,-99.99,,2013-03-06 15:32:00,
2013-03-06 10:42:00,44.0,-99.9,29.61,WNW,291,22.0,33.0,-999,-99.99,,,-99.99,,2013-03-06 15:42:00,
2013-03-06 10:52:00,45.0,-99.9,29.61,North,-999,-999.0,-999.0,-999,-99.99,,,-99.99,,2013-03-06 15:52:00,
2013-03-06 11:02:00,-999.0,-99.9,29.60,West,277,10.0,26.0,-999,-99.99,,,-99.99,,2013-03-06 16:02:00,
2013-03-06 11:22:00,-999.0,-99.9,29.61,WNW,297,21.0,25.0,-999,-99.99,,,-99.99,,2013-03-06 16:22:00,
2013-03-06 11:32:00,46.0,-99.9,29.60,North,-999,-999.0,-999.0,-999,-99.99,,,-99.99,,2013-03-06 16:32:00,
2013-03-06 11:52:00,47.0,-99.9,29.60,North,-999,-999.0,-999.0,-999,-99.99,,,-99.99,,2013-03-06 16:52:00,
2013-03-06 12:01:00,46.0,-99.9,29.60,North,-999,-999.0,-999.0,-999,-99.99,,,-99.99,,2013-03-06 17:01:00,
2013-03-06 12:11:00,-999.0,-99.9,29.60,West,272,13.0,28.0,-999,-99.99,,,-99.99,,2013-03-06 17:11:00,
2013-03-06 12:22:00,-999.0,-99.9,29.60,WNW,295,12.0,21.0,-999,-99.99,,,-99.99,,2013-03-06 17:22:00,
2013-03-06 12:32:00,46.0,-99.9,29.61,North,-999,-999.0,-999.0,-999,-99.99,,,-99.99,,2013-03-06 17:32:00,
2013-03-06 12:42:00,-999.0,-99.9,29.60,WNW,284,12.0,28.0,-999,-99.99,,,-99.99,,2013-03-06 17:42:00,
2013-03-06 12:53:00,46.0,-99.9,29.61,North,-999,-999.0,-999.0,-999,-99.99,,,-99.99,,2013-03-06 17:53:00,
2013-03-06 13:02:00,-999.0,-99.9,29.60,WNW,286,14.0,23.0,-999,-99.99,,,-99.99,,2013-03-06 18:02:00,
2013-03-06 13:29:00,-999.0,-99.9,29.60,WNW,295,16.0,31.0,-999,-99.99,,,-99.99,,2013-03-06 18:29:00,
2013-03-06 13:42:00,47.0,-99.9,29.58,North,-999,-999.0,-999.0,-999,-99.99,,,-99.99,,2013-03-06 18:42:00,
2013-03-06 13:53:00,46.0,-99.9,29.59,North,-999,-999.0,-999.0,-999,-99.99,,,-99.99,,2013-03-06 18:53:00,
2013-03-06 14:02:00,-999.0,-99.9,29.58,WNW,295,22.0,36.0,-999,-99.99,,,-99.99,,2013-03-06 19:02:00,
2013-03-06 14:11:00,-999.0,-99.9,29.59,WNW,288,17.0,34.0,-999,-99.99,,,-99.99,,2013-03-06 19:11:00,
2013-03-06 14:22:00,47.0,-99.9,29.58,North,-999,-999.0,-999.0,-999,-99.99,,,-99.99,,2013-03-06 19:22:00,
2013-03-06 14:33:00,47.0,-99.9,29.58,North,-999,-999.0,-999.0,-999,-99.99,,,-99.99,,2013-03-06 19:33:00,
2013-03-06 14:53:00,46.0,-99.9,29.59,North,-999,-999.0,-999.0,-999,-99.99,,,-99.99,,2013-03-06 19:53:00,
2013-03-06 15:02:00,46.0,-99.9,29.59,North,-999,-999.0,-999.0,-999,-99.99,,,-99.99,,2013-03-06 20:02:00,
2013-03-06 15:12:00,-999.0,-99.9,29.59,WNW,293,15.0,36.0,-999,-99.99,,,-99.99,,2013-03-06 20:12:00,
2013-03-06 15:23:00,46.0,-99.9,29.60,North,-999,-999.0,-999.0,-999,-99.99,,,-99.99,,2013-03-06 20:23:00,
2013-03-06 15:33:00,-999.0,-99.9,29.60,WNW,295,23.0,32.0,-999,-99.99,,,-99.99,,2013-03-06 20:33:00,
2013-03-06 15:53:00,-999.0,-99.9,29.60,WNW,298,20.0,33.0,-999,-99.99,,,-99.99,,2013-03-06 20:53:00,
2013-03-06 16:02:00,46.0,-99.9,29.60,North,-999,-999.0,-999.0,-999,-99.99,,,-99.99,,2013-03-06 21:02:00,
2013-03-06 16:23:00,-999.0,-99.9,29.60,NW,304,16.0,38.0,-999,-99.99,,,-99.99,,2013-03-06 21:23:00,
2013-03-06 16:33:00,47.0,-99.9,29.61,North,-999,-999.0,-999.0,-999,-99.99,,,-99.99,,2013-03-06 21:33:00,
2013-03-06 16:52:00,46.0,-99.9,29.62,North,-999,-999.0,-999.0,-999,-99.99,,,-99.99,,2013-03-06 21:52:00,
2013-03-06 17:02:00,-999.0,-99.9,29.62,NW,308,22.0,36.0,-999,-99.99,,,-99.99,,2013-03-06 22:02:00,
2013-03-06 17:12:00,-999.0,-99.9,29.63,NW,316,19.0,27.0,-999,-99.99,,,-99.99,,2013-03-06 22:12:00,
2013-03-06 17:22:00,-999.0,-99.9,29.64,NW,308,23.0,32.0,-999,-99.99,,,-99.99,,2013-03-06 22:22:00,
2013-03-06 17:32:00,-999.0,-99.9,29.65,NW,311,19.0,36.0,-999,-99.99,,,-99.99,,2013-03-06 22:32:00,
2013-03-06 17:42:00,-999.0,-99.9,29.66,NW,322,22.0,40.0,-999,-99.99,,,-99.99,,2013-03-06 22:42:00,
2013-03-06 17:52:00,-999.0,-99.9,29.66,NW,316,22.0,38.0,-999,-99.99,,,-99.99,,2013-03-06 22:52:00,
2013-03-06 18:02:00,-999.0,-99.9,29.67,NW,315,17.0,33.0,-999,-99.99,,,-99.99,,2013-03-06 23:02:00,
2013-03-06 18:22:00,45.0,-99.9,29.68,North,-999,-999.0,-999.0,-999,-99.99,,,-99.99,,2013-03-06 23:22:00,
2013-03-06 18:32:00,-999.0,-99.9,29.69,NW,314,20.0,33.0,-999,-99.99,,,-99.99,,2013-03-06 23:32:00,
2013-03-06 18:42:00,44.0,-99.9,29.70,North,-999,-999.0,-999.0,-999,-99.99,,,-99.99,,2013-03-06 23:42:00,
2013-03-06 18:52:00,44.0,-99.9,29.71,North,-999,-999.0,-999.0,-999,-99.99,,,-99.99,,2013-03-06 23:52:00,
2013-03-06 19:02:00,44.0,-99.9,29.72,North,-999,-999.0,-999.0,-999,-99.99,,,-99.99,,2013-03-07 00:02:00,
2013-03-06 19:22:00,44.0,-99.9,29.74,North,-999,-999.0,-999.0,-999,-99.99,,,-99.99,,2013-03-07 00:22:00,
2013-03-06 19:32:00,-999.0,-99.9,29.75,NW,323,20.0,30.0,-999,-99.99,,,-99.99,,2013-03-07 00:32:00,
2013-03-06 19:52:00,43.0,-99.9,29.77,North,-999,-999.0,-999.0,-999,-99.99,,,-99.99,,2013-03-07 00:52:00,
2013-03-06 20:02:00,43.0,-99.9,29.77,North,-999,-999.0,-999.0,-999,-99.99,,,-99.99,,2013-03-07 01:02:00,
2013-03-06 20:12:00,43.0,-99.9,29.78,North,-999,-999.0,-999.0,-999,-99.99,,,-99.99,,2013-03-07 01:12:00,
2013-03-06 20:22:00,43.0,-99.9,29.78,North,-999,-999.0,-999.0,-999,-99.99,,,-99.99,,2013-03-07 01:22:00,
2013-03-06 20:32:00,-999.0,-99.9,29.79,NNW,329,21.0,30.0,-999,-99.99,,,-99.99,,2013-03-07 01:32:00,
2013-03-06 20:52:00,-999.0,-99.9,29.79,NNW,336,23.0,33.0,-999,-99.99,,,-99.99,,2013-03-07 01:52:00,
2013-03-06 21:01:00,-999.0,-99.9,29.80,NNW,332,22.0,34.0,-999,-99.99,,,-99.99,,2013-03-07 02:01:00,
2013-03-06 21:11:00,-999.0,-99.9,29.81,NNW,327,18.0,28.0,-999,-99.99,,,-99.99,,2013-03-07 02:11:00,
2013-03-06 21:22:00,-999.0,-99.9,29.82,NNW,334,20.0,31.0,-999,-99.99,,,-99.99,,2013-03-07 02:22:00,
2013-03-06 21:32:00,-999.0,-99.9,29.83,NNW,333,19.0,31.0,-999,-99.99,,,-99.99,,2013-03-07 02:32:00,
2013-03-06 21:42:00,-999.0,-99.9,29.83,NNW,333,19.0,31.0,-999,-99.99,,,-99.99,,2013-03-07 02:42:00,
2013-03-06 21:52:00,-999.0,-99.9,29.83,NNW,333,19.0,31.0,-999,-99.99,,,-99.99,,2013-03-07 02:52:00,
2013-03-06 22:02:00,43.0,-99.9,29.84,North,-999,-999.0,-999.0,-999,-99.99,,,-99.99,,2013-03-07 03:02:00,
2013-03-06 22:12:00,43.0,-99.9,29.85,North,-999,-999.0,-999.0,-999,-99.99,,,-99.99,,2013-03-07 03:12:00,
2013-03-06 22:22:00,-999.0,-99.9,29.86,NNW,336,20.0,34.0,-999,-99.99,,,-99.99,,2013-03-07 03:22:00,
2013-03-06 22:32:00,43.0,-99.9,29.86,North,-999,-999.0,-999.0,-999,-99.99,,,-99.99,,2013-03-07 03:32:00,
2013-03-06 22:42:00,-999.0,-99.9,29.86,NNW,333,18.0,30.0,-999,-99.99,,,-99.99,,2013-03-07 03:42:00,
2013-03-06 22:52:00,43.0,-99.9,29.86,North,-999,-999.0,-999.0,-999,-99.99,,,-99.99,,2013-03-07 03:52:00,
2013-03-06 23:02:00,42.0,-99.9,29.87,North,-999,-999.0,-999.0,-999,-99.99,,,-99.99,,2013-03-07 04:02:00,
2013-03-06 23:12:00,42.0,-99.9,29.87,North,-999,-999.0,-999.0,-999,-99.99,,,-99.99,,2013-03-07 04:12:00,
2013-03-06 23:22:00,42.0,-99.9,29.87,North,-999,-999.0,-999.0,-999,-99.99,,,-99.99,,2013-03-07 04:22:00,
2013-03-06 23:32:00,43.0,-99.9,29.88,North,-999,-999.0,-999.0,-999,-99.99,,,-99.99,,2013-03-07 04:32:00,
2013-03-06 23:42:00,-999.0,-99.9,29.88,NNW,334,16.0,31.0,-999,-99.99,,,-99.99,,2013-03-07 04:42:00,
2013-03-06 23:52:00,-999.0,-99.9,29.88,NNW,338,16.0,26.0,-999,-99.99,,,-99.99,,2013-03-07 04:52:00,